,,Stat6,,Stat2,,Stat8,,Stat9,,Stat10,,Wind1,,Wind1,
time,status,PA1M_AVG,status,PR1M_SUM,status,RH1M_AVG,status,SR1M_AVG,status,TA1M_AVG,status,W1dAve1m,status,W1sAve1m,
2005-03-29, 00:00:01,VALID,919.23,VALID,0,VALID,100,VALID,0,VALID,20.4993,VALID,28,VALID,0.648793,
2005-03-29, 00:01:00,VALID,919.225,VALID,0,VALID,100,VALID,0,VALID,20.4831,VALID,27,VALID,0.467187,
2005-03-29, 00:02:00,VALID,919.222,VALID,0,VALID,100,VALID,0,VALID,20.5092,VALID,19,VALID,0.994665,
2005-03-29, 00:03:01,VALID,919.2,VALID,0,VALID,100,VALID,0,VALID,20.4796,VALID,22,VALID,0.95206,
2005-03-29, 00:04:00,VALID,919.21,VALID,0,VALID,100,VALID,0,VALID,20.4729,VALID,17,VALID,0.641335,
2005-03-29, 00:05:00,VALID,919.207,VALID,0,VALID,100,VALID,0,VALID,20.4285,VALID,326,VALID,0.591751,
2005-03-29, 00:06:00,VALID,919.19,VALID,0,VALID,100,VALID,-0.0339617,VALID,20.3771,VALID,312,VALID,0.299964,
2005-03-29, 00:07:01,VALID,919.174,VALID,0,VALID,100,VALID,0,VALID,20.383,VALID,312,VALID,0.0651727,
2005-03-29, 00:08:00,VALID,919.17,VALID,0,VALID,100,VALID,0,VALID,20.3959,VALID,312,VALID,0,
2005-03-29, 00:09:01,VALID,919.161,VALID,0,VALID,100,VALID,0,VALID,20.39,VALID,312,VALID,0,
2005-03-29, 00:10:01,VALID,919.138,VALID,0,VALID,100,VALID,0,VALID,20.3865,VALID,312,VALID,0,
2005-03-29, 00:11:00,VALID,919.134,VALID,0,VALID,100,VALID,0,VALID,20.4029,VALID,312,VALID,0,
2005-03-29, 00:12:00,VALID,919.119,VALID,0,VALID,100,VALID,0,VALID,20.426,VALID,312,VALID,0.0507813,
2005-03-29, 00:13:01,VALID,919.135,VALID,0,VALID,100,VALID,0,VALID,20.4156,VALID,312,VALID,0.016369,
2005-03-29, 00:14:00,VALID,919.129,VALID,0,VALID,100,VALID,0,VALID,20.4414,VALID,12,VALID,0.472747,
2005-03-29, 00:15:00,VALID,919.116,VALID,0,VALID,100,VALID,-0.0169808,VALID,20.4503,VALID,15,VALID,0.370833,
2005-03-29, 00:16:01,VALID,919.109,VALID,0,VALID,100,VALID,-0.0169808,VALID,20.467,VALID,15,VALID,0.238758,
2005-03-29, 00:17:01,VALID,919.099,VALID,0,VALID,100,VALID,0,VALID,20.4441,VALID,15,VALID,0.104651,
2005-03-29, 00:18:01,VALID,919.092,VALID,0,VALID,100,VALID,0,VALID,20.4414,VALID,15,VALID,0.415838,
2005-03-29, 00:19:01,VALID,919.08,VALID,0,VALID,100,VALID,-0.0679233,VALID,20.4489,VALID,15,VALID,0.266868,
2005-03-29, 00:20:01,VALID,919.091,VALID,0,VALID,100,VALID,-0.101885,VALID,20.447,VALID,15,VALID,0.607922,
2005-03-29, 00:21:01,VALID,919.082,VALID,0,VALID,100,VALID,-0.101885,VALID,20.4397,VALID,15,VALID,0.233073,
2005-03-29, 00:22:00,VALID,919.086,VALID,0,VALID,100,VALID,-0.0679233,VALID,20.4494,VALID,15,VALID,0.217226,
2005-03-29, 00:23:01,VALID,919.105,VALID,0.2,VALID,100,VALID,-0.101885,VALID,20.4464,VALID,15,VALID,0.0729167,
2005-03-29, 00:24:01,VALID,919.115,VALID,0,VALID,100,VALID,-0.0679233,VALID,20.4656,VALID,15,VALID,0,
2005-03-29, 00:25:00,VALID,919.127,VALID,0,VALID,100,VALID,-0.0679233,VALID,20.4494,VALID,15,VALID,0.224888,
2005-03-29, 00:26:01,VALID,919.131,VALID,0,VALID,100,VALID,-0.0849042,VALID,20.4166,VALID,14,VALID,0.0501454,
2005-03-29, 00:27:01,VALID,919.124,VALID,0,VALID,100,VALID,-0.0679233,VALID,20.4039,VALID,14,VALID,0,
2005-03-29, 00:28:01,VALID,919.108,VALID,0,VALID,100,VALID,-0.0679233,VALID,20.4171,VALID,15,VALID,0,
2005-03-29, 00:29:00,VALID,919.091,VALID,0,VALID,100,VALID,-0.0849042,VALID,20.4107,VALID,15,VALID,0.123698,
2005-03-29, 00:30:00,VALID,919.067,VALID,0,VALID,100,VALID,-0.0679233,VALID,20.4141,VALID,15,VALID,0.0419207,
2005-03-29, 00:31:01,VALID,919.053,VALID,0,VALID,100,VALID,-0.0679233,VALID,20.4163,VALID,14,VALID,0.0583079,
2005-03-29, 00:32:01,VALID,919.021,VALID,0,VALID,100,VALID,-0.0679233,VALID,20.4166,VALID,14,VALID,0.0862926,
2005-03-29, 00:33:01,VALID,919.011,VALID,0,VALID,100,VALID,-0.0339617,VALID,20.4042,VALID,14,VALID,0.0828887,
2005-03-29, 00:34:01,VALID,919.003,VALID,0,VALID,100,VALID,-0.0679233,VALID,20.3749,VALID,14,VALID,0,
2005-03-29, 00:35:01,VALID,918.995,VALID,0,VALID,100,VALID,-0.0509425,VALID,20.3873,VALID,15,VALID,0.187137,
2005-03-29, 00:36:01,VALID,918.987,VALID,0,VALID,100,VALID,-0.0849042,VALID,20.4037,VALID,15,VALID,0.212081,
2005-03-29, 00:37:01,VALID,918.985,VALID,0,VALID,100,VALID,-0.0679233,VALID,20.4037,VALID,14,VALID,0.0555959,
2005-03-29, 00:38:01,VALID,918.989,VALID,0,VALID,100,VALID,-0.0679233,VALID,20.4074,VALID,14,VALID,0.126065,
2005-03-29, 00:39:01,VALID,918.994,VALID,0,VALID,100,VALID,-0.0849042,VALID,20.3975,VALID,15,VALID,0.0892361,
2005-03-29, 00:40:00,VALID,918.997,VALID,0,VALID,100,VALID,-0.0679233,VALID,20.4171,VALID,15,VALID,0.0900391,
2005-03-29, 00:41:01,VALID,918.99,VALID,0,VALID,100,VALID,-0.101885,VALID,20.3943,VALID,14,VALID,0.0219131,
2005-03-29, 00:42:01,VALID,918.996,VALID,0,VALID,100,VALID,-0.0679233,VALID,20.4169,VALID,14,VALID,0.074929,
2005-03-29, 00:43:01,VALID,918.977,VALID,0,VALID,100,VALID,-0.0849042,VALID,20.4628,VALID,15,VALID,0.39755,
2005-03-29, 00:44:01,VALID,918.963,VALID,0,VALID,100,VALID,-0.0849042,VALID,20.4812,VALID,15,VALID,0.368056,
2005-03-29, 00:45:01,VALID,918.943,VALID,0,VALID,100,VALID,-0.0849042,VALID,20.4849,VALID,15,VALID,0.641513,
2005-03-29, 00:46:01,VALID,918.925,VALID,0,VALID,100,VALID,-0.0679233,VALID,20.4814,VALID,15,VALID,0.475632,
2005-03-29, 00:47:01,VALID,918.918,VALID,0,VALID,100,VALID,-0.0849042,VALID,20.4656,VALID,15,VALID,0.401296,
2005-03-29, 00:48:01,VALID,918.911,VALID,0,VALID,100,VALID,-0.0509425,VALID,20.4395,VALID,15,VALID,0.0586846,
2005-03-29, 00:49:01,VALID,918.888,VALID,0,VALID,100,VALID,-0.0339617,VALID,20.4037,VALID,15,VALID,0.146763,
2005-03-29, 00:50:01,VALID,918.869,VALID,0,VALID,100,VALID,-0.0509425,VALID,20.3778,VALID,15,VALID,0.00260417,
2005-03-29, 00:51:01,VALID,918.858,VALID,0,VALID,100,VALID,-0.0509425,VALID,20.3719,VALID,15,VALID,0,
2005-03-29, 00:52:01,VALID,918.844,VALID,0,VALID,100,VALID,-0.0679233,VALID,20.3622,VALID,15,VALID,0.0433408,
2005-03-29, 00:53:01,VALID,918.819,VALID,0,VALID,100,VALID,-0.101885,VALID,20.3558,VALID,15,VALID,0,
2005-03-29, 00:54:01,VALID,918.786,VALID,0,VALID,100,VALID,-0.0849042,VALID,20.3423,VALID,15,VALID,0.0992006,
2005-03-29, 00:55:01,VALID,918.761,VALID,0,VALID,100,VALID,-0.101885,VALID,20.3423,VALID,15,VALID,0.413699,
2005-03-29, 00:56:01,VALID,918.737,VALID,0,VALID,100,VALID,-0.0849042,VALID,20.3555,VALID,359,VALID,0.231831,
2005-03-29, 00:57:01,VALID,918.706,VALID,0,VALID,100,VALID,-0.0849042,VALID,20.2907,VALID,279,VALID,0.509718,
2005-03-29, 00:58:01,VALID,918.686,VALID,0,VALID,100,VALID,-0.0509425,VALID,20.2551,VALID,333,VALID,0.338889,
2005-03-29, 00:59:01,VALID,918.671,VALID,0,VALID,100,VALID,-0.0679233,VALID,20.2936,VALID,9,VALID,0.161776,
2005-03-29, 01:00:01,VALID,918.657,VALID,0,VALID,100,VALID,-0.0509425,VALID,20.2974,VALID,6,VALID,0.641927,
2005-03-29, 01:01:01,VALID,918.644,VALID,0,VALID,100,VALID,-0.0849042,VALID,20.2556,VALID,19,VALID,1.41424,
2005-03-29, 01:02:01,VALID,918.635,VALID,0,VALID,100,VALID,-0.0849042,VALID,20.2233,VALID,347,VALID,0.898065,
2005-03-29, 01:03:01,VALID,918.621,VALID,0,VALID,100,VALID,-0.0849042,VALID,20.1851,VALID,352,VALID,0.875558,
2005-03-29, 01:04:00,VALID,918.594,VALID,0,VALID,100,VALID,-0.0679233,VALID,20.1913,VALID,10,VALID,1.20222,
2005-03-29, 01:05:00,VALID,918.551,VALID,0,VALID,100,VALID,-0.0849042,VALID,20.1585,VALID,2,VALID,1.07793,
2005-03-29, 01:06:00,VALID,918.526,VALID,0,VALID,100,VALID,-0.0849042,VALID,20.1367,VALID,332,VALID,1.51651,
2005-03-29, 01:07:00,VALID,918.489,VALID,0,VALID,100,VALID,-0.0509425,VALID,20.0909,VALID,337,VALID,0.824219,
2005-03-29, 01:08:00,VALID,918.447,VALID,0,VALID,100,VALID,-0.0849042,VALID,20.0942,VALID,9,VALID,0.554688,
2005-03-29, 01:09:00,VALID,918.41,VALID,0,VALID,100,VALID,-0.101885,VALID,20.091,VALID,6,VALID,0.460392,
2005-03-29, 01:10:00,VALID,918.372,VALID,0,VALID,100,VALID,-0.0849042,VALID,20.1103,VALID,23,VALID,0.802539,
2005-03-29, 01:11:00,VALID,918.333,VALID,0,VALID,100,VALID,-0.101885,VALID,20.1526,VALID,21,VALID,0.661272,
2005-03-29, 01:12:00,VALID,918.302,VALID,0,VALID,100,VALID,-0.0849042,VALID,20.1781,VALID,27,VALID,0.268466,
2005-03-29, 01:13:00,VALID,918.282,VALID,0,VALID,100,VALID,-0.101885,VALID,20.1786,VALID,28,VALID,0.0278201,
2005-03-29, 01:14:00,VALID,918.259,VALID,0,VALID,100,VALID,-0.101885,VALID,20.1655,VALID,28,VALID,0,
2005-03-29, 01:15:00,VALID,918.222,VALID,0,VALID,100,VALID,-0.101885,VALID,20.1523,VALID,28,VALID,0,
2005-03-29, 01:16:00,VALID,918.191,VALID,0,VALID,100,VALID,-0.101885,VALID,20.1754,VALID,28,VALID,0,
2005-03-29, 01:17:00,VALID,918.161,VALID,0,VALID,100,VALID,-0.0849042,VALID,20.1943,VALID,28,VALID,0,
2005-03-29, 01:18:00,VALID,918.142,VALID,0,VALID,100,VALID,-0.0849042,VALID,20.2042,VALID,28,VALID,0.149926,
2005-03-29, 01:19:00,VALID,918.108,VALID,0,VALID,100,VALID,-0.0339617,VALID,20.2231,VALID,28,VALID,0.162464,
2005-03-29, 01:20:00,VALID,918.071,VALID,0,VALID,100,VALID,-0.0169808,VALID,20.2422,VALID,28,VALID,0.286966,
2005-03-29, 01:21:00,VALID,918.028,VALID,0,VALID,100,VALID,-0.0169808,VALID,20.229,VALID,27,VALID,0.527058,
2005-03-29, 01:22:00,VALID,918.004,VALID,0,VALID,100,VALID,-0.0339617,VALID,20.1968,VALID,20,VALID,1.30104,
2005-03-29, 01:23:00,VALID,917.975,VALID,0,VALID,100,VALID,0,VALID,20.1545,VALID,39,VALID,1.01817,
2005-03-29, 01:24:00,VALID,917.941,VALID,0,VALID,100,VALID,0,VALID,20.1491,VALID,43,VALID,0.954241,
2005-03-29, 01:25:00,VALID,917.916,VALID,0,VALID,100,VALID,-0.0339617,VALID,20.0872,VALID,17,VALID,1.46621,
2005-03-29, 01:26:00,VALID,917.908,VALID,0,VALID,100,VALID,-0.0339617,VALID,20.0614,VALID,27,VALID,1.24721,
2005-03-29, 01:27:00,VALID,917.899,VALID,0,VALID,100,VALID,0,VALID,20.0323,VALID,36,VALID,1.09502,
2005-03-29, 01:28:00,VALID,917.902,VALID,0,VALID,100,VALID,-0.0339617,VALID,20.0321,VALID,22,VALID,0.966797,
2005-03-29, 01:29:00,VALID,917.897,VALID,0,VALID,100,VALID,-0.0169808,VALID,20.0355,VALID,19,VALID,0.943359,
2005-03-29, 01:30:00,VALID,917.894,VALID,0,VALID,100,VALID,-0.0169808,VALID,20.0097,VALID,19,VALID,0.575149,
2005-03-29, 01:31:00,VALID,917.894,VALID,0,VALID,100,VALID,-0.0339617,VALID,19.9965,VALID,23,VALID,0.396763,
2005-03-29, 01:32:00,VALID,917.887,VALID,0,VALID,100,VALID,0,VALID,19.9965,VALID,23,VALID,0.218178,
2005-03-29, 01:33:00,VALID,917.885,VALID,0,VALID,100,VALID,-0.0169808,VALID,19.9933,VALID,23,VALID,0.32649,
2005-03-29, 01:34:00,VALID,917.871,VALID,0,VALID,100,VALID,0,VALID,20.003,VALID,23,VALID,0.194727,
2005-03-29, 01:35:00,VALID,917.836,VALID,0,VALID,100,VALID,-0.0339617,VALID,19.9968,VALID,40,VALID,0.356468,
2005-03-29, 01:36:00,VALID,917.8,VALID,0,VALID,100,VALID,-0.0339617,VALID,19.9772,VALID,115,VALID,0.537829,
2005-03-29, 01:37:00,VALID,917.773,VALID,0,VALID,100,VALID,-0.0339617,VALID,19.9715,VALID,115,VALID,0.280878,
2005-03-29, 01:38:00,VALID,917.754,VALID,0,VALID,100,VALID,-0.0169808,VALID,19.9774,VALID,115,VALID,0.442508,
2005-03-29, 01:39:00,VALID,917.731,VALID,0,VALID,100,VALID,-0.0339617,VALID,19.9717,VALID,115,VALID,0.359375,
2005-03-29, 01:40:00,VALID,917.716,VALID,0,VALID,100,VALID,-0.0509425,VALID,19.9513,VALID,86,VALID,0.598011,
2005-03-29, 01:41:00,VALID,917.689,VALID,0,VALID,100,VALID,0,VALID,19.9717,VALID,65,VALID,0.776296,
2005-03-29, 01:42:00,VALID,917.676,VALID,0,VALID,100,VALID,-0.0339617,VALID,19.9516,VALID,60,VALID,0.537059,
2005-03-29, 01:43:00,VALID,917.65,VALID,0,VALID,100,VALID,-0.0339617,VALID,19.9389,VALID,81,VALID,0.686821,
2005-03-29, 01:44:00,VALID,917.638,VALID,0,VALID,100,VALID,-0.0339617,VALID,19.9099,VALID,77,VALID,0.636039,
2005-03-29, 01:45:00,VALID,917.615,VALID,0,VALID,100,VALID,-0.0169808,VALID,19.8997,VALID,68,VALID,0.300595,
2005-03-29, 01:46:00,VALID,917.585,VALID,0,VALID,100,VALID,-0.0339617,VALID,19.8967,VALID,79,VALID,0.433203,
2005-03-29, 01:47:00,VALID,917.557,VALID,0,VALID,100,VALID,0,VALID,19.8905,VALID,96,VALID,0.285247,
2005-03-29, 01:48:00,VALID,917.525,VALID,0,VALID,100,VALID,-0.0169808,VALID,19.8902,VALID,96,VALID,0.0310595,
2005-03-29, 01:49:00,VALID,917.508,VALID,0,VALID,100,VALID,-0.0169808,VALID,19.8808,VALID,96,VALID,0.185082,
2005-03-29, 01:50:00,VALID,917.493,VALID,0,VALID,100,VALID,0,VALID,19.8706,VALID,96,VALID,0.0690696,
2005-03-29, 01:51:00,VALID,917.477,VALID,0,VALID,100,VALID,0,VALID,19.8743,VALID,96,VALID,0.00436047,
2005-03-29, 01:52:00,VALID,917.448,VALID,0,VALID,100,VALID,-0.0339617,VALID,19.8771,VALID,96,VALID,0,
2005-03-29, 01:53:00,VALID,917.423,VALID,0,VALID,100,VALID,-0.0509425,VALID,19.8746,VALID,96,VALID,0,
2005-03-29, 01:54:00,VALID,917.401,VALID,0,VALID,100,VALID,-0.0339617,VALID,19.8676,VALID,96,VALID,0,
2005-03-29, 01:55:00,VALID,917.381,VALID,0,VALID,100,VALID,-0.0339617,VALID,19.8843,VALID,96,VALID,0,
2005-03-29, 01:56:00,VALID,917.347,VALID,0,VALID,100,VALID,-0.0339617,VALID,19.8907,VALID,96,VALID,0.00301847,
2005-03-29, 01:57:00,VALID,917.328,VALID,0,VALID,100,VALID,-0.0679233,VALID,19.9233,VALID,96,VALID,0.251999,
2005-03-29, 01:58:00,VALID,917.33,VALID,0,VALID,100,VALID,-0.0679233,VALID,19.9394,VALID,96,VALID,0.350852,
2005-03-29, 01:59:00,VALID,917.321,VALID,0,VALID,100,VALID,-0.0339617,VALID,19.9429,VALID,96,VALID,0.421875,
2005-03-29, 02:00:00,VALID,917.325,VALID,0,VALID,99.9939,VALID,-0.0679233,VALID,19.9096,VALID,96,VALID,0.459077,
2005-03-29, 02:01:00,VALID,917.315,VALID,0,VALID,99.8655,VALID,-0.0509425,VALID,19.8907,VALID,96,VALID,0.492188,
2005-03-29, 02:02:00,VALID,917.302,VALID,0,VALID,99.8184,VALID,-0.0509425,VALID,19.8585,VALID,93,VALID,0.659226,
2005-03-29, 02:03:00,VALID,917.295,VALID,0,VALID,99.7892,VALID,-0.0509425,VALID,19.8296,VALID,90,VALID,0.585938,
2005-03-29, 02:04:00,VALID,917.274,VALID,0,VALID,99.8146,VALID,-0.0169808,VALID,19.8105,VALID,88,VALID,0.492188,
2005-03-29, 02:05:00,VALID,917.252,VALID,0,VALID,99.8642,VALID,-0.0849042,VALID,19.7708,VALID,99,VALID,0.49814,
2005-03-29, 02:06:00,VALID,917.253,VALID,0,VALID,99.9476,VALID,-0.0679233,VALID,19.7646,VALID,100,VALID,0.293605,
2005-03-29, 02:07:00,VALID,917.257,VALID,0,VALID,100,VALID,-0.0339617,VALID,19.7646,VALID,100,VALID,0.106468,
2005-03-29, 02:08:00,VALID,917.249,VALID,0,VALID,100,VALID,-0.0169808,VALID,19.7648,VALID,100,VALID,0.00190549,
2005-03-29, 02:09:00,VALID,917.269,VALID,0,VALID,100,VALID,0,VALID,19.7775,VALID,100,VALID,0,
2005-03-29, 02:10:00,VALID,917.279,VALID,0,VALID,100,VALID,-0.0339617,VALID,19.7906,VALID,100,VALID,0,
2005-03-29, 02:11:00,VALID,917.267,VALID,0,VALID,100,VALID,-0.0679233,VALID,19.7872,VALID,100,VALID,0,
2005-03-29, 02:12:00,VALID,917.264,VALID,0,VALID,100,VALID,-0.0509425,VALID,19.8043,VALID,100,VALID,0,
2005-03-29, 02:13:00,VALID,917.255,VALID,0,VALID,100,VALID,-0.0339617,VALID,19.82,VALID,100,VALID,0.185138,
2005-03-29, 02:14:00,VALID,917.254,VALID,0,VALID,100,VALID,-0.0339617,VALID,19.8359,VALID,100,VALID,0.279762,
2005-03-29, 02:15:00,VALID,917.248,VALID,0,VALID,100,VALID,-0.0509425,VALID,19.8361,VALID,100,VALID,0.419695,
2005-03-29, 02:16:00,VALID,917.248,VALID,0,VALID,100,VALID,-0.0339617,VALID,19.8329,VALID,100,VALID,0.396391,
2005-03-29, 02:17:00,VALID,917.242,VALID,0,VALID,100,VALID,0,VALID,19.8264,VALID,100,VALID,0.278392,
2005-03-29, 02:18:00,VALID,917.236,VALID,0,VALID,100,VALID,-0.0169808,VALID,19.8202,VALID,112,VALID,0.45625,
2005-03-29, 02:19:00,VALID,917.227,VALID,0,VALID,100,VALID,0.0849042,VALID,19.7983,VALID,126,VALID,0.416726,
2005-03-29, 02:20:00,VALID,917.203,VALID,0,VALID,100,VALID,0.0849042,VALID,19.7951,VALID,130,VALID,0.571875,
2005-03-29, 02:21:00,VALID,917.2,VALID,0,VALID,100,VALID,0.101885,VALID,19.7959,VALID,132,VALID,0.53468,
2005-03-29, 02:22:00,VALID,917.194,VALID,0,VALID,100,VALID,0.0849042,VALID,19.7824,VALID,134,VALID,0.408794,
2005-03-29, 02:23:00,VALID,917.184,VALID,0,VALID,100,VALID,0.101885,VALID,19.7695,VALID,134,VALID,0.438616,
2005-03-29, 02:24:00,VALID,917.191,VALID,0,VALID,100,VALID,0.101885,VALID,19.7668,VALID,134,VALID,0.315848,
2005-03-29, 02:25:00,VALID,917.205,VALID,0,VALID,100,VALID,0.0509425,VALID,19.7574,VALID,133,VALID,0.397852,
2005-03-29, 02:26:00,VALID,917.201,VALID,0,VALID,100,VALID,0.0509425,VALID,19.7509,VALID,123,VALID,0.463605,
2005-03-29, 02:27:00,VALID,917.211,VALID,0,VALID,100,VALID,0.0679233,VALID,19.738,VALID,106,VALID,0.371366,
2005-03-29, 02:28:00,VALID,917.195,VALID,0,VALID,100,VALID,0.0339617,VALID,19.735,VALID,106,VALID,0.282422,
2005-03-29, 02:29:00,VALID,917.187,VALID,0,VALID,100,VALID,0.0339617,VALID,19.7117,VALID,106,VALID,0.323331,
2005-03-29, 02:30:00,VALID,917.18,VALID,0,VALID,100,VALID,0.0679233,VALID,19.7246,VALID,106,VALID,0.356898,
2005-03-29, 02:31:00,VALID,917.175,VALID,0,VALID,100,VALID,0.0679233,VALID,19.7246,VALID,106,VALID,0.427734,
2005-03-29, 02:32:00,VALID,917.164,VALID,0,VALID,100,VALID,0.0679233,VALID,19.7079,VALID,106,VALID,0.600472,
2005-03-29, 02:33:00,VALID,917.144,VALID,0,VALID,100,VALID,0.0849042,VALID,19.7248,VALID,106,VALID,0.429102,
2005-03-29, 02:34:00,VALID,917.144,VALID,0,VALID,100,VALID,-0.0169808,VALID,19.733,VALID,110,VALID,0.592905,
2005-03-29, 02:35:00,VALID,917.127,VALID,0,VALID,100,VALID,-0.0509425,VALID,19.7295,VALID,116,VALID,0.796317,
2005-03-29, 02:36:00,VALID,917.119,VALID,0,VALID,100,VALID,-0.0679233,VALID,19.7298,VALID,125,VALID,0.795632,
2005-03-29, 02:37:00,VALID,917.109,VALID,0,VALID,100,VALID,-0.0679233,VALID,19.7134,VALID,125,VALID,0.676172,
2005-03-29, 02:38:00,VALID,917.1,VALID,0,VALID,100,VALID,-0.0509425,VALID,19.701,VALID,95,VALID,0.910247,
2005-03-29, 02:39:00,VALID,917.09,VALID,0,VALID,100,VALID,-0.0169808,VALID,19.6779,VALID,88,VALID,0.712391,
2005-03-29, 02:40:00,VALID,917.077,VALID,0,VALID,100,VALID,-0.0509425,VALID,19.6779,VALID,87,VALID,0.540451,
2005-03-29, 02:41:00,VALID,917.096,VALID,0,VALID,100,VALID,-0.0509425,VALID,19.6645,VALID,120,VALID,0.636458,
2005-03-29, 02:42:00,VALID,917.076,VALID,0,VALID,100,VALID,-0.0509425,VALID,19.6913,VALID,152,VALID,0.749047,
2005-03-29, 02:43:00,VALID,917.084,VALID,0,VALID,100,VALID,-0.0169808,VALID,19.6873,VALID,152,VALID,0.644922,
2005-03-29, 02:44:00,VALID,917.087,VALID,0,VALID,100,VALID,-0.0169808,VALID,19.6943,VALID,139,VALID,0.656076,
2005-03-29, 02:45:00,VALID,917.08,VALID,0,VALID,100,VALID,0,VALID,19.6841,VALID,94,VALID,0.720274,
2005-03-29, 02:46:00,VALID,917.095,VALID,0,VALID,100,VALID,0,VALID,19.6876,VALID,85,VALID,0.693714,
2005-03-29, 02:47:00,VALID,917.091,VALID,0,VALID,100,VALID,-0.0169808,VALID,19.6903,VALID,81,VALID,0.288872,
2005-03-29, 02:48:00,VALID,917.087,VALID,0,VALID,100,VALID,-0.0339617,VALID,19.6771,VALID,81,VALID,0.158507,
2005-03-29, 02:49:00,VALID,917.093,VALID,0,VALID,100,VALID,-0.0339617,VALID,19.694,VALID,81,VALID,0.231771,
2005-03-29, 02:50:00,VALID,917.076,VALID,0,VALID,100,VALID,0,VALID,19.7069,VALID,81,VALID,0.134301,
2005-03-29, 02:51:00,VALID,917.08,VALID,0,VALID,100,VALID,-0.0339617,VALID,19.7032,VALID,81,VALID,0.39668,
2005-03-29, 02:52:00,VALID,917.078,VALID,0,VALID,100,VALID,-0.0169808,VALID,19.7132,VALID,81,VALID,0.237216,
2005-03-29, 02:53:00,VALID,917.072,VALID,0,VALID,100,VALID,-0.0169808,VALID,19.7099,VALID,81,VALID,0.208807,
2005-03-29, 02:54:00,VALID,917.063,VALID,0,VALID,100,VALID,-0.0509425,VALID,19.7231,VALID,81,VALID,0.189453,
2005-03-29, 02:55:00,VALID,917.069,VALID,0,VALID,100,VALID,-0.0169808,VALID,19.7136,VALID,81,VALID,0.351372,
2005-03-29, 02:56:00,VALID,917.06,VALID,0,VALID,100,VALID,-0.0339617,VALID,19.694,VALID,81,VALID,0.46875,
2005-03-29, 02:57:00,VALID,917.055,VALID,0,VALID,100,VALID,-0.0849042,VALID,19.6878,VALID,81,VALID,0.420603,
2005-03-29, 02:58:00,VALID,917.053,VALID,0,VALID,100,VALID,-0.0339617,VALID,19.691,VALID,81,VALID,0.432546,
2005-03-29, 02:59:00,VALID,917.055,VALID,0,VALID,100,VALID,-0.0339617,VALID,19.6843,VALID,81,VALID,0.106908,
2005-03-29, 03:00:00,VALID,917.043,VALID,0,VALID,100,VALID,-0.0169808,VALID,19.6906,VALID,81,VALID,0.00218023,
2005-03-29, 03:01:00,VALID,917.055,VALID,0,VALID,100,VALID,0,VALID,19.7166,VALID,81,VALID,0.169017,
2005-03-29, 03:02:00,VALID,917.055,VALID,0,VALID,100,VALID,-0.0509425,VALID,19.743,VALID,81,VALID,0.250363,
2005-03-29, 03:03:00,VALID,917.057,VALID,0,VALID,100,VALID,-0.0339617,VALID,19.7363,VALID,81,VALID,0.0572917,
2005-03-29, 03:04:00,VALID,917.066,VALID,0,VALID,100,VALID,0,VALID,19.7328,VALID,81,VALID,0,
2005-03-29, 03:05:00,VALID,917.067,VALID,0,VALID,100,VALID,-0.0169808,VALID,19.7196,VALID,81,VALID,0,
2005-03-29, 03:06:00,VALID,917.062,VALID,0,VALID,100,VALID,-0.0169808,VALID,19.7169,VALID,81,VALID,0.0227108,
2005-03-29, 03:07:00,VALID,917.047,VALID,0,VALID,100,VALID,-0.0339617,VALID,19.7002,VALID,81,VALID,0.233631,
2005-03-29, 03:08:00,VALID,917.045,VALID,0,VALID,100,VALID,-0.0339617,VALID,19.7074,VALID,81,VALID,0.193216,
2005-03-29, 03:09:00,VALID,917.023,VALID,0,VALID,100,VALID,-0.0169808,VALID,19.6906,VALID,81,VALID,0.230655,
2005-03-29, 03:10:00,VALID,917.017,VALID,0,VALID,100,VALID,0,VALID,19.6742,VALID,81,VALID,0.324219,
2005-03-29, 03:11:00,VALID,917.007,VALID,0,VALID,100,VALID,-0.0169808,VALID,19.6394,VALID,81,VALID,0.329327,
2005-03-29, 03:12:00,VALID,916.996,VALID,0,VALID,100,VALID,-0.0339617,VALID,19.6106,VALID,81,VALID,0.265807,
2005-03-29, 03:13:00,VALID,916.985,VALID,0,VALID,100,VALID,-0.0849042,VALID,19.5907,VALID,81,VALID,0.372396,
2005-03-29, 03:14:00,VALID,916.987,VALID,0,VALID,100,VALID,-0.0849042,VALID,19.578,VALID,81,VALID,0.263622,
2005-03-29, 03:15:00,VALID,916.969,VALID,0,VALID,100,VALID,-0.0339617,VALID,19.5912,VALID,81,VALID,0.478609,
2005-03-29, 03:16:00,VALID,916.955,VALID,0,VALID,100,VALID,-0.0169808,VALID,19.5939,VALID,83,VALID,0.621911,
2005-03-29, 03:17:00,VALID,916.951,VALID,0,VALID,100,VALID,-0.0169808,VALID,19.6168,VALID,57,VALID,0.721608,
2005-03-29, 03:18:00,VALID,916.957,VALID,0,VALID,100,VALID,-0.0509425,VALID,19.6198,VALID,49,VALID,0.60766,
2005-03-29, 03:19:00,VALID,916.961,VALID,0,VALID,100,VALID,-0.0169808,VALID,19.6324,VALID,34,VALID,0.621366,
2005-03-29, 03:20:00,VALID,916.963,VALID,0,VALID,100,VALID,-0.0339617,VALID,19.629,VALID,41,VALID,0.484197,
2005-03-29, 03:21:00,VALID,916.955,VALID,0,VALID,100,VALID,0,VALID,19.623,VALID,37,VALID,0.488715,
2005-03-29, 03:22:00,VALID,916.953,VALID,0,VALID,100,VALID,0,VALID,19.619,VALID,42,VALID,0.628089,
2005-03-29, 03:23:00,VALID,916.942,VALID,0,VALID,100,VALID,-0.0169808,VALID,19.6098,VALID,45,VALID,0.601749,
2005-03-29, 03:24:00,VALID,916.943,VALID,0,VALID,100,VALID,-0.0339617,VALID,19.6138,VALID,45,VALID,0.610742,
2005-03-29, 03:25:00,VALID,916.932,VALID,0,VALID,100,VALID,-0.0169808,VALID,19.5942,VALID,45,VALID,0.736192,
2005-03-29, 03:26:00,VALID,916.916,VALID,0,VALID,100,VALID,-0.0509425,VALID,19.578,VALID,44,VALID,0.955669,
2005-03-29, 03:27:00,VALID,916.925,VALID,0,VALID,100,VALID,-0.0339617,VALID,19.5718,VALID,44,VALID,0.855283,
2005-03-29, 03:28:00,VALID,916.908,VALID,0,VALID,100,VALID,0,VALID,19.5515,VALID,48,VALID,0.828125,
2005-03-29, 03:29:00,VALID,916.911,VALID,0,VALID,100,VALID,0,VALID,19.5321,VALID,56,VALID,0.800114,
2005-03-29, 03:30:00,VALID,916.914,VALID,0,VALID,100,VALID,-0.0169808,VALID,19.5167,VALID,73,VALID,0.738782,
2005-03-29, 03:31:00,VALID,916.901,VALID,0,VALID,100,VALID,-0.0169808,VALID,19.4936,VALID,86,VALID,0.782278,
2005-03-29, 03:32:00,VALID,916.917,VALID,0,VALID,100,VALID,0,VALID,19.4839,VALID,100,VALID,0.685454,
2005-03-29, 03:33:00,VALID,916.915,VALID,0,VALID,100,VALID,-0.0169808,VALID,19.4643,VALID,107,VALID,0.87862,
2005-03-29, 03:34:00,VALID,916.915,VALID,0,VALID,100,VALID,-0.0169808,VALID,19.4551,VALID,90,VALID,0.860283,
2005-03-29, 03:35:00,VALID,916.904,VALID,0,VALID,100,VALID,-0.0169808,VALID,19.439,VALID,78,VALID,0.936047,
2005-03-29, 03:36:00,VALID,916.903,VALID,0,VALID,100,VALID,-0.0169808,VALID,19.4258,VALID,72,VALID,0.996189,
2005-03-29, 03:37:00,VALID,916.891,VALID,0,VALID,100,VALID,0,VALID,19.4161,VALID,83,VALID,0.943638,
2005-03-29, 03:38:00,VALID,916.886,VALID,0,VALID,100,VALID,0,VALID,19.4067,VALID,85,VALID,0.835379,
2005-03-29, 03:39:00,VALID,916.886,VALID,0,VALID,100,VALID,0.0169808,VALID,19.3995,VALID,91,VALID,1.00801,
2005-03-29, 03:40:00,VALID,916.878,VALID,0,VALID,100,VALID,-0.0169808,VALID,19.4064,VALID,102,VALID,0.704883,